Wind_Speed
9 9 9 8 8 8 7 7 7 7 8 8 8 8 9 9 9 10 10 10 10 10 10 10 10 10 11 11 10 10 10 10 10 10 10 9 9 10 10 9 9 9 8
9 9 8 8 8 7 7 7 6 7 7 7 8 8 9 9 9 9 9 9 9 9 10 10 10 11 11 11 10 10 10 10 10 10 10 10 10 9 9 9 9 8 8
8 8 8 8 7 7 7 6 6 6 6 6 8 9 9 9 9 9 9 9 10 10 10 10 10 10 10 10 10 10 10 10 10 9 9 9 9 9 9 8 8 7 7
8 8 8 8 7 7 7 7 6 6 6 6 7 8 9 10 10 10 10 9 10 9 10 9 9 10 10 10 10 10 10 10 10 9 9 9 9 9 9 9 8 7 7
8 8 7 7 7 7 6 6 6 6 6 6 7 8 8 9 9 9 9 9 9 9 9 10 9 10 9 9 9 9 9 9 9 9 9 9 9 8 8 8 8 7 7
8 8 8 7 7 7 7 6 6 6 7 6 6 6 7 8 8 8 8 8 8 8 9 9 9 9 8 8 8 8 8 8 8 8 8 8 8 8 8 8 8 7 7
8 8 8 7 7 7 7 6 6 6 6 6 6 6 6 7 7 7 7 8 7 8 8 8 8 8 8 7 7 7 7 8 8 7 7 7 7 7 7 7 6 6 6
9 8 7 7 7 6 6 6 5 5 6 6 6 6 6 6 7 7 6 7 7 7 7 7 7 7 7 7 7 7 6 7 7 6 6 6 6 6 6 6 5 5 5
9 8 7 7 6 6 6 5 5 5 5 5 6 6 6 6 6 6 6 6 5 5 5 6 6 6 6 6 6 6 6 6 6 6 6 5 5 5 5 5 4 4 4
10 9 7 7 7 6 6 5 4 4 4 4 4 5 5 5 5 5 5 5 5 4 4 5 5 6 6 6 6 6 5 5 6 5 5 4 4 4 4 3 3 3 3
11 9 8 7 7 7 6 6 5 4 3 4 3 4 4 4 3 4 4 4 4 4 4 4 4 5 5 5 5 5 5 5 5 4 4 4 3 3 3 3 2 2 2
11 10 9 8 8 7 7 6 5 4 4 3 3 3 3 3 3 3 3 3 3 3 3 3 3 4 4 4 3 4 4 3 3 3 2 2 2 2 2 2 2 1 1
12 11 11 10 9 8 7 7 6 5 5 4 4 3 3 3 3 3 3 2 2 2 2 3 3 2 3 3 3 3 2 3 3 2 1 1 1 1 1 1 1 1 1
13 12 11 11 10 9 8 8 7 7 6 6 4 3 3 3 3 3 3 1 1 1 2 3 3 2 2 2 2 2 2 2 2 1 1 1 1 1 1 1 1 1 1
14 13 12 12 11 10 9 9 8 8 7 6 5 4 3 3 3 2 3 2 1 1 2 3 3 3 3 3 2 2 2 2 2 2 2 2 2 2 2 2 2 2 2
14 14 13 11 12 11 11 10 9 8 8 7 5 5 4 3 2 2 2 2 1 0 1 2 3 3 3 3 3 3 3 3 3 3 3 3 3 3 3 4 4 4 4
14 14 14 12 11 12 12 11 10 8 8 7 6 5 4 3 3 2 2 2 1 1 1 2 3 4 4 4 5 4 4 4 4 4 4 4 4 4 4 4 5 5 6
14 14 14 13 13 12 12 11 10 9 8 7 6 5 4 4 3 3 3 3 2 2 3 3 3 4 5 5 5 6 6 6 6 6 5 5 5 6 6 6 7 7 7
13 14 14 14 13 12 12 11 11 10 10 8 7 5 5 5 4 4 3 4 3 3 3 4 4 5 6 6 7 7 7 7 7 7 7 7 7 8 8 8 8 9 8
13 14 14 14 13 12 13 13 12 11 10 8 7 6 5 6 6 5 5 5 4 4 5 5 6 6 6 6 7 8 8 8 9 9 8 8 8 9 9 10 10 10 10
14 14 14 14 13 13 13 13 13 12 10 9 7 6 6 6 6 6 6 6 6 6 6 6 6 7 7 7 8 8 10 10 10 10 10 10 9 10 10 10 11 11 12
13 13 14 14 14 13 13 13 13 13 11 10 8 7 7 7 6 7 7 8 7 7 6 6 6 7 8 8 8 9 9 10 11 12 12 12 11 12 12 12 13 14 14
13 13 13 14 13 14 14 14 14 12 11 10 9 8 8 7 7 8 8 8 7 7 6 6 6 7 8 9 9 9 10 11 13 12 13 13 13 13 14 15 15 15 15
12 12 13 13 13 13 14 14 13 12 12 11 10 9 9 8 8 8 9 8 8 7 7 7 7 7 8 9 10 10 10 11 13 13 13 14 14 14 15 15 16 17 16
12 12 13 13 13 13 14 13 12 12 12 11 10 10 9 9 9 8 9 10 9 8 8 8 8 8 8 9 10 10 11 11 12 13 14 14 14 15 16 16 16 17 17
12 12 13 13 13 13 13 13 12 12 11 11 10 10 10 10 10 9 9 9 9 9 9 9 9 9 9 9 10 11 11 11 12 13 14 14 15 15 16 17 18 18 18
Wind_Direction
55 52 50 46 45 47 51 56 70 80 84 88 97 100 103 103 103 104 106 106 106 107 108 114 113 105 106 104 102 101 96 94 93 92 88 87 90 89 88 88 89 92 97
52 51 50 48 45 43 46 55 65 73 76 85 95 99 103 108 108 107 105 106 108 112 114 111 107 105 104 104 104 105 101 98 99 94 90 89 89 87 88 89 91 91 93
51 49 51 48 45 45 47 51 55 59 64 80 97 105 106 107 110 111 106 105 103 107 110 106 104 104 105 107 106 107 104 100 101 98 92 92 90 87 87 85 87 89 89
50 49 51 46 42 44 45 47 52 56 62 73 94 101 104 101 104 104 102 104 103 102 104 103 103 106 105 107 108 109 106 102 100 97 93 92 90 87 86 82 81 85 84
50 49 48 43 41 44 45 46 51 59 66 75 86 91 92 93 96 97 98 99 102 101 104 101 100 104 104 103 105 108 106 102 100 96 93 92 92 89 87 84 80 79 81
49 50 48 45 43 43 45 49 54 58 65 74 82 88 90 92 94 96 97 97 98 100 102 101 99 103 104 104 103 105 102 100 101 99 97 96 95 91 87 83 80 79 78
45 47 47 45 42 42 47 50 53 57 63 72 80 85 88 91 93 100 98 98 99 102 103 105 103 105 103 103 102 105 104 101 103 103 102 98 97 93 88 85 84 80 77
43 44 42 40 38 39 43 46 48 53 62 70 78 85 88 92 96 101 105 102 101 102 105 109 109 109 108 107 106 107 107 105 105 105 102 98 94 92 89 85 83 83 80
40 41 38 37 36 36 38 44 49 57 60 67 75 85 89 92 96 99 103 106 107 109 111 111 111 113 112 112 110 110 110 109 107 106 102 94 91 90 87 86 87 86 85
36 38 38 39 39 35 34 42 47 55 61 67 70 77 86 90 95 102 103 108 109 111 116 117 116 113 112 113 108 111 115 113 108 104 100 96 91 88 83 85 92 87 84
38 38 38 38 38 34 30 30 39 54 59 58 65 73 81 85 86 100 107 112 112 114 118 122 122 119 120 118 113 114 115 114 106 102 97 93 94 92 84 80 73 80 77
38 38 34 35 33 32 28 27 35 41 42 46 55 65 71 75 81 93 105 119 119 119 124 130 132 128 130 127 125 127 124 119 121 111 101 91 95 94 86 80 61 59 51
38 36 34 34 31 30 32 32 33 37 38 38 37 40 42 46 65 78 88 110 132 135 144 155 160 149 139 137 145 149 142 137 143 141 138 129 131 116 86 60 32 20 6
35 37 37 37 33 36 35 33 31 32 30 28 25 26 30 29 48 60 60 57 133 170 170 179 193 205 183 168 170 179 172 165 166 190 196 215 211 219 257 307 322 315 316
34 36 40 38 36 34 33 29 26 25 23 25 27 21 16 20 38 43 47 47 36 203 204 205 205 220 216 202 205 208 209 209 215 224 238 252 251 252 266 283 294 293 299
34 33 34 35 35 32 32 30 25 24 24 22 17 14 12 18 22 16 13 14 357 276 217 216 220 232 225 228 231 231 235 237 239 238 244 256 261 264 269 274 283 284 284
31 31 31 29 30 31 30 26 24 24 19 17 12 5 4 4 5 352 339 333 325 305 265 234 226 233 240 240 239 240 246 251 253 254 254 262 268 269 271 273 277 278 277
28 26 26 27 25 26 26 25 22 18 14 13 13 4 358 354 352 344 334 323 304 280 277 269 251 247 244 245 243 244 246 251 255 258 259 262 269 273 276 275 276 276 276
23 21 19 19 19 18 19 19 17 13 13 17 18 12 3 353 350 348 340 329 309 296 287 281 273 266 256 254 249 252 251 252 258 263 267 269 271 274 276 278 280 277 274
20 16 16 19 21 20 17 16 14 11 9 12 12 11 5 356 352 349 341 331 321 306 298 293 286 280 270 264 262 262 261 260 263 266 270 273 277 277 277 277 280 277 276
19 19 20 18 19 17 13 12 12 8 7 7 5 5 357 352 347 346 342 332 326 319 313 299 290 286 280 272 268 267 264 267 270 268 268 271 277 279 279 278 276 279 280
16 17 16 16 14 12 9 9 10 11 12 12 7 1 353 351 350 349 346 340 334 324 314 310 304 289 284 281 275 272 273 272 273 272 268 267 272 277 278 277 277 278 280
12 12 10 8 7 7 4 5 11 16 14 11 8 3 357 352 347 345 343 339 335 334 329 322 316 303 293 287 283 279 280 280 275 275 274 270 268 275 278 279 278 278 278
8 8 5 3 4 4 3 4 10 12 9 6 4 1 355 352 347 344 341 338 333 328 327 325 320 311 300 295 293 288 285 283 281 279 276 274 274 276 278 281 281 283 283
3 1 0 359 0 1 359 1 4 5 3 1 359 357 357 359 353 345 340 341 336 328 327 325 321 315 309 301 295 291 290 287 285 281 279 278 278 279 280 281 283 286 284
358 359 359 357 357 358 357 358 359 359 360 360 0 357 356 360 358 351 348 344 339 336 335 332 328 320 313 306 300 295 291 290 291 289 285 284 281 283 284 285 286 286 285
Height
5882 5881 5881 5881 5880 5879 5878 5878 5877 5876 5876 5875 5875 5875 5875 5875 5875 5875 5875 5876 5876 5877 5878 5878 5878 5879 5880 5881 5882 5883 5883 5884 5885 5885 5885 5886 5886 5887 5887 5887 5888 5888 5889
5884 5883 5883 5883 5882 5881 5880 5880 5879 5878 5878 5877 5877 5876 5877 5877 5877 5877 5877 5878 5878 5878 5879 5880 5881 5881 5882 5883 5883 5884 5885 5886 5886 5887 5887 5887 5888 5888 5889 5889 5890 5890 5891
5886 5885 5885 5884 5884 5883 5882 5881 5881 5880 5879 5879 5878 5878 5878 5878 5879 5879 5879 5880 5880 5880 5881 5882 5883 5883 5884 5885 5885 5886 5887 5887 5888 5889 5889 5889 5889 5890 5890 5891 5892 5892 5893
5887 5887 5886 5886 5885 5885 5884 5883 5882 5882 5881 5881 5880 5880 5880 5880 5881 5881 5881 5882 5882 5883 5883 5884 5885 5885 5886 5887 5887 5888 5889 5889 5890 5890 5891 5891 5891 5892 5892 5893 5893 5894 5894
5889 5888 5888 5887 5887 5886 5886 5885 5884 5883 5883 5883 5882 5882 5882 5882 5883 5883 5883 5884 5884 5884 5885 5886 5886 5887 5888 5888 5889 5890 5890 5891 5891 5892 5892 5893 5893 5893 5894 5894 5895 5895 5895
5891 5890 5889 5889 5888 5888 5887 5886 5886 5885 5885 5885 5884 5884 5884 5885 5885 5885 5885 5886 5886 5886 5887 5887 5888 5889 5889 5890 5890 5891 5892 5892 5893 5893 5894 5894 5895 5895 5895 5896 5896 5896 5897
5892 5891 5891 5890 5890 5889 5889 5888 5887 5887 5887 5886 5886 5886 5886 5886 5887 5887 5887 5887 5888 5888 5888 5889 5890 5890 5891 5891 5892 5893 5893 5894 5894 5895 5895 5896 5896 5896 5897 5897 5897 5898 5898
5894 5893 5892 5892 5891 5891 5890 5890 5889 5889 5888 5888 5888 5888 5888 5888 5888 5888 5889 5889 5889 5890 5890 5891 5891 5892 5892 5893 5893 5894 5894 5895 5896 5896 5897 5897 5897 5898 5898 5898 5899 5899 5899
5895 5894 5894 5893 5892 5892 5892 5891 5891 5890 5890 5890 5890 5889 5889 5889 5889 5890 5890 5890 5891 5891 5891 5892 5892 5893 5893 5894 5894 5895 5896 5896 5897 5897 5898 5898 5898 5899 5899 5900 5900 5900 5900
5896 5896 5895 5894 5893 5893 5893 5893 5892 5892 5892 5891 5891 5891 5891 5890 5890 5891 5891 5891 5892 5892 5893 5893 5894 5894 5894 5895 5896 5896 5897 5897 5897 5898 5898 5899 5899 5900 5900 5901 5901 5901 5901
5898 5898 5897 5896 5895 5895 5894 5894 5893 5893 5893 5893 5892 5892 5892 5892 5892 5892 5892 5892 5893 5893 5894 5894 5895 5895 5895 5896 5897 5897 5897 5898 5898 5899 5899 5900 5900 5901 5901 5901 5901 5902 5902
5900 5899 5899 5898 5897 5896 5896 5895 5895 5895 5894 5894 5894 5893 5893 5893 5893 5893 5893 5893 5893 5894 5894 5895 5895 5895 5896 5896 5897 5898 5898 5899 5899 5900 5900 5901 5901 5901 5902 5902 5902 5902 5902
5902 5901 5900 5899 5898 5898 5897 5897 5896 5896 5895 5895 5895 5895 5894 5894 5894 5894 5894 5894 5894 5895 5895 5896 5896 5896 5896 5897 5897 5898 5899 5899 5900 5900 5901 5901 5902 5902 5902 5902 5902 5902 5902
5904 5903 5902 5901 5900 5899 5899 5898 5898 5897 5897 5896 5896 5896 5895 5895 5895 5895 5895 5895 5895 5895 5895 5896 5896 5896 5897 5897 5898 5899 5899 5899 5900 5901 5901 5902 5902 5902 5902 5902 5902 5902 5902
5906 5905 5904 5903 5902 5901 5900 5900 5899 5898 5897 5897 5897 5896 5896 5896 5895 5895 5895 5895 5895 5895 5895 5896 5896 5897 5898 5898 5898 5899 5899 5899 5900 5901 5901 5901 5902 5902 5902 5902 5902 5902 5902
5908 5907 5906 5905 5904 5903 5902 5901 5900 5899 5898 5898 5897 5897 5896 5896 5896 5895 5895 5895 5895 5895 5895 5896 5896 5897 5897 5898 5898 5899 5899 5899 5900 5900 5901 5901 5901 5901 5901 5901 5901 5901 5901
5910 5909 5908 5907 5905 5904 5903 5902 5901 5900 5899 5898 5897 5897 5896 5896 5896 5896 5895 5895 5895 5895 5895 5895 5896 5896 5897 5897 5898 5898 5899 5899 5900 5900 5900 5900 5900 5900 5900 5900 5900 5900 5900
5912 5910 5909 5908 5907 5905 5904 5903 5902 5901 5900 5898 5897 5897 5896 5896 5896 5896 5895 5895 5895 5895 5895 5895 5895 5896 5896 5896 5897 5897 5898 5899 5899 5899 5899 5899 5899 5899 5899 5899 5899 5899 5899
5913 5912 5910 5909 5908 5906 5905 5904 5902 5901 5900 5899 5898 5897 5897 5896 5896 5896 5895 5895 5894 5895 5895 5895 5895 5895 5895 5895 5895 5896 5897 5897 5897 5898 5898 5898 5898 5898 5898 5898 5898 5897 5898
5915 5913 5912 5910 5909 5907 5906 5904 5903 5901 5900 5899 5898 5898 5897 5897 5896 5895 5895 5894 5894 5894 5894 5894 5893 5893 5893 5893 5894 5894 5895 5895 5896 5896 5896 5896 5896 5896 5896 5896 5896 5895 5895
5916 5914 5913 5912 5910 5908 5907 5905 5903 5902 5901 5899 5898 5897 5897 5896 5896 5895 5894 5894 5893 5893 5893 5892 5892 5892 5892 5892 5892 5892 5893 5893 5893 5893 5894 5894 5894 5894 5894 5894 5894 5893 5893
5916 5915 5914 5913 5911 5909 5907 5905 5904 5902 5901 5900 5898 5897 5897 5896 5895 5895 5894 5893 5893 5892 5892 5891 5890 5890 5890 5890 5890 5890 5891 5891 5891 5891 5891 5891 5891 5892 5892 5892 5891 5891 5891
5917 5916 5915 5914 5912 5910 5908 5905 5904 5903 5901 5900 5899 5898 5897 5896 5895 5894 5894 5893 5892 5891 5891 5890 5889 5889 5889 5888 5888 5888 5888 5889 5888 5888 5888 5887 5888 5889 5889 5888 5888 5887 5887
5918 5917 5916 5914 5913 5911 5909 5907 5905 5903 5902 5900 5899 5898 5897 5896 5895 5894 5893 5892 5891 5890 5890 5889 5888 5887 5887 5886 5886 5885 5886 5886 5885 5885 5885 5885 5885 5885 5885 5885 5884 5884 5883
5919 5918 5916 5915 5913 5911 5910 5908 5906 5904 5902 5901 5899 5898 5897 5896 5895 5894 5893 5892 5891 5890 5889 5887 5886 5885 5885 5884 5884 5883 5883 5882 5882 5882 5882 5882 5882 5881 5881 5881 5880 5880 5879
5919 5918 5917 5915 5913 5912 5910 5908 5906 5905 5903 5901 5899 5898 5897 5896 5895 5894 5893 5891 5890 5889 5887 5886 5885 5884 5883 5882 5881 5880 5880 5879 5879 5879 5879 5878 5878 5877 5877 5876 5876 5875 5875